EZY91QY EGKK-LGKR

Flight info

Callsign EZY91QY
Flight time 2h 53m
Altitude 35000
Route MIMFO Y312 DVR UL9 KONAN DCT KOK DCT SISGA DCT KOMOB DCT PITES DCT EDISA DCT PICWI DCT UTABA DCT BEMKI DCT ELMEM DCT DIRAB/N0439F370 DCT PEVAL DCT AIOSA DCT ENOXA DCT KAPPO DCT TIGRA
Aircraft A320/M-SDE2E3FGHIRWXY/LB1

Departure

Time 2026-04-15 09:15
Airport London Gatwick Airport (EGKK)

Arrival

Time 2026-04-15 12:08
Airport Corfu Ioannis Kapodistrias International Airport (LGKR)
Time Latitude Longitude Altitude Speed Heading
2026-04-15 08:48 51.15637 -0.17848 211 ft 0 kts 167°
2026-04-15 09:04 51.15650 -0.17853 216 ft 3 kts 167°
2026-04-15 09:04 51.15670 -0.17860 208 ft 3 kts 167°
2026-04-15 09:04 51.15687 -0.17866 212 ft 3 kts 163°
2026-04-15 09:05 51.15704 -0.17878 209 ft 3 kts 127°
2026-04-15 09:05 51.15710 -0.17903 208 ft 3 kts 83°
2026-04-15 09:05 51.15705 -0.17934 215 ft 3 kts 71°
2026-04-15 09:05 51.15700 -0.17959 216 ft 1 kts 77°
2026-04-15 09:06 51.15700 -0.17961 216 ft 0 kts 77°
2026-04-15 09:07 51.15700 -0.17958 216 ft 2 kts 78°
2026-04-15 09:08 51.15707 -0.17902 209 ft 8 kts 79°
2026-04-15 09:08 51.15720 -0.17779 214 ft 14 kts 81°
2026-04-15 09:08 51.15747 -0.17602 204 ft 19 kts 78°
2026-04-15 09:08 51.15717 -0.17495 209 ft 11 kts 169°
2026-04-15 09:09 51.15636 -0.17468 208 ft 14 kts 167°
2026-04-15 09:09 51.15526 -0.17430 208 ft 18 kts 167°
2026-04-15 09:09 51.15389 -0.17385 206 ft 21 kts 167°
2026-04-15 09:09 51.15263 -0.17324 212 ft 12 kts 147°
2026-04-15 09:10 51.15249 -0.17212 204 ft 10 kts 79°
2026-04-15 09:10 51.15264 -0.17106 212 ft 9 kts 79°
2026-04-15 09:10 51.15271 -0.17056 204 ft 0 kts 78°
2026-04-15 09:11 51.15273 -0.17035 204 ft 2 kts 78°
2026-04-15 09:11 51.15276 -0.17014 206 ft 2 kts 78°
2026-04-15 09:11 51.15288 -0.16928 204 ft 12 kts 78°
2026-04-15 09:11 51.15285 -0.16839 207 ft 6 kts 122°
2026-04-15 09:12 51.15280 -0.16832 205 ft 0 kts 139°
2026-04-15 09:13 51.15246 -0.16814 205 ft 10 kts 165°
2026-04-15 09:13 51.15176 -0.16788 209 ft 12 kts 170°
2026-04-15 09:13 51.15111 -0.16865 212 ft 14 kts 259°
2026-04-15 09:14 51.15091 -0.17016 207 ft 14 kts 257°
2026-04-15 09:14 51.15060 -0.17254 204 ft 38 kts 256°
2026-04-15 09:14 51.14953 -0.18012 211 ft 102 kts 257°
2026-04-15 09:14 51.14760 -0.19397 205 ft 152 kts 258°
2026-04-15 09:15 51.14518 -0.21200 531 ft 169 kts 254°
2026-04-15 09:15 51.14290 -0.23045 1206 ft 171 kts 253°
2026-04-15 09:15 51.14053 -0.24916 1806 ft 176 kts 253°
2026-04-15 09:15 51.13776 -0.26946 2087 ft 200 kts 257°
2026-04-15 09:16 51.13892 -0.29235 2613 ft 219 kts 287°
2026-04-15 09:16 51.14803 -0.31255 3278 ft 236 kts 319°
2026-04-15 09:16 51.16355 -0.32250 3860 ft 252 kts 353°
2026-04-15 09:16 51.18050 -0.31593 4473 ft 257 kts 34°
2026-04-15 09:17 51.19198 -0.29483 5171 ft 254 kts 73°
2026-04-15 09:17 51.19613 -0.26772 5905 ft 252 kts 84°
2026-04-15 09:17 51.19935 -0.24014 6664 ft 254 kts 85°
2026-04-15 09:17 51.20255 -0.21228 7358 ft 258 kts 85°
2026-04-15 09:18 51.20595 -0.18333 7754 ft 277 kts 84°
2026-04-15 09:18 51.20979 -0.15210 8186 ft 294 kts 83°
2026-04-15 09:18 51.21397 -0.11980 8863 ft 300 kts 82°
2026-04-15 09:18 51.21833 -0.08701 9595 ft 305 kts 82°
2026-04-15 09:19 51.22279 -0.05362 10278 ft 312 kts 82°
2026-04-15 09:19 51.22743 -0.01844 10459 ft 336 kts 82°
2026-04-15 09:19 51.23233 0.01922 10593 ft 353 kts 82°
2026-04-15 09:19 51.23736 0.05799 11142 ft 360 kts 82°
2026-04-15 09:20 51.24246 0.09736 11773 ft 364 kts 82°
2026-04-15 09:20 51.24763 0.13719 12408 ft 368 kts 81°
2026-04-15 09:20 51.25250 0.17757 13014 ft 371 kts 86°
2026-04-15 09:20 51.25349 0.21861 13592 ft 371 kts 97°
2026-04-15 09:21 51.25066 0.25960 14123 ft 373 kts 101°
2026-04-15 09:21 51.24748 0.30083 14678 ft 375 kts 101°
2026-04-15 09:21 51.24432 0.34181 15242 ft 378 kts 101°
2026-04-15 09:21 51.24104 0.38418 15841 ft 381 kts 101°
2026-04-15 09:22 51.23784 0.42568 16419 ft 384 kts 101°
2026-04-15 09:22 51.23453 0.46862 17010 ft 387 kts 102°
2026-04-15 09:22 51.23123 0.51135 17538 ft 390 kts 101°
2026-04-15 09:22 51.22792 0.55451 18063 ft 394 kts 101°
2026-04-15 09:23 51.22458 0.59805 18557 ft 397 kts 101°
2026-04-15 09:23 51.22119 0.64190 19063 ft 399 kts 101°
2026-04-15 09:23 51.21771 0.68596 19564 ft 402 kts 101°
2026-04-15 09:23 51.21421 0.72983 20055 ft 405 kts 101°
2026-04-15 09:24 51.21059 0.77509 20550 ft 408 kts 101°
2026-04-15 09:24 51.20705 0.81958 21036 ft 411 kts 101°
2026-04-15 09:24 51.20342 0.86492 21515 ft 414 kts 101°
2026-04-15 09:24 51.19975 0.91058 21989 ft 417 kts 101°
2026-04-15 09:25 51.19597 0.95711 22501 ft 419 kts 101°
2026-04-15 09:25 51.19220 1.00336 22949 ft 422 kts 101°
2026-04-15 09:25 51.18841 1.04981 23369 ft 424 kts 101°
2026-04-15 09:25 51.18457 1.09657 23755 ft 427 kts 101°
2026-04-15 09:26 51.18073 1.14295 24100 ft 429 kts 101°
2026-04-15 09:26 51.17676 1.19075 24439 ft 431 kts 101°
2026-04-15 09:26 51.17280 1.23826 24774 ft 434 kts 101°
2026-04-15 09:26 51.16878 1.28603 25123 ft 436 kts 101°
2026-04-15 09:27 51.16470 1.33402 25449 ft 439 kts 101°
2026-04-15 09:27 51.16082 1.38237 25768 ft 441 kts 100°
2026-04-15 09:27 51.15791 1.43061 26063 ft 444 kts 98°
2026-04-15 09:27 51.15564 1.48040 26392 ft 447 kts 96°
2026-04-15 09:28 51.15373 1.52924 26715 ft 449 kts 96°
2026-04-15 09:28 51.15177 1.57961 27024 ft 451 kts 96°
2026-04-15 09:28 51.14966 1.62953 27325 ft 453 kts 97°
2026-04-15 09:28 51.14734 1.67966 27618 ft 455 kts 97°
2026-04-15 09:29 51.14488 1.72933 27913 ft 457 kts 97°
2026-04-15 09:29 51.14229 1.77989 28208 ft 459 kts 98°
2026-04-15 09:29 51.13962 1.83070 28505 ft 461 kts 98°
2026-04-15 09:29 51.13782 1.86507 28700 ft 463 kts 98°
2026-04-15 09:30 51.13513 1.91627 28969 ft 465 kts 97°
2026-04-15 09:30 51.13242 1.96769 29256 ft 467 kts 97°
2026-04-15 09:30 51.12971 2.01933 29523 ft 469 kts 97°
2026-04-15 09:30 51.12700 2.07121 29785 ft 471 kts 97°
2026-04-15 09:31 51.12426 2.12329 30044 ft 473 kts 97°
2026-04-15 09:31 51.12151 2.17547 30278 ft 475 kts 97°
2026-04-15 09:31 51.11866 2.22796 30484 ft 477 kts 97°
2026-04-15 09:31 51.11574 2.28063 30689 ft 479 kts 97°
2026-04-15 09:32 51.11280 2.33344 30942 ft 479 kts 97°
2026-04-15 09:32 51.10987 2.38619 31229 ft 478 kts 97°
2026-04-15 09:32 51.10694 2.43888 31513 ft 478 kts 97°
2026-04-15 09:32 51.10397 2.49155 31806 ft 478 kts 97°
2026-04-15 09:33 51.10094 2.54418 32088 ft 478 kts 97°
2026-04-15 09:33 51.09767 2.59674 32359 ft 477 kts 100°
2026-04-15 09:33 51.09082 2.64813 32629 ft 474 kts 109°
2026-04-15 09:33 51.07937 2.69701 32905 ft 470 kts 118°
2026-04-15 09:34 51.06446 2.74304 33162 ft 469 kts 121°
2026-04-15 09:34 51.04920 2.78883 33439 ft 468 kts 121°
2026-04-15 09:34 51.03400 2.83463 33712 ft 468 kts 121°
2026-04-15 09:34 51.01880 2.88048 33938 ft 470 kts 120°
2026-04-15 09:35 51.00354 2.92641 34172 ft 470 kts 120°
2026-04-15 09:35 50.98825 2.97233 34400 ft 470 kts 121°
2026-04-15 09:35 50.97292 3.01819 34638 ft 470 kts 121°
2026-04-15 09:35 50.95758 3.06397 34865 ft 470 kts 121°
2026-04-15 09:36 50.94222 3.10967 35074 ft 470 kts 121°
2026-04-15 09:36 50.92689 3.15522 35155 ft 468 kts 121°
2026-04-15 09:36 50.89637 3.24567 35165 ft 464 kts 121°
2026-04-15 09:37 50.86593 3.33576 35166 ft 464 kts 120°
2026-04-15 09:37 50.83540 3.42590 35168 ft 465 kts 120°
2026-04-15 09:38 50.80467 3.51587 35173 ft 465 kts 120°
2026-04-15 09:38 50.77391 3.60576 35184 ft 465 kts 120°
2026-04-15 09:39 50.74313 3.69553 35183 ft 465 kts 120°
2026-04-15 09:39 50.71228 3.78509 35183 ft 465 kts 120°
2026-04-15 09:40 50.68130 3.87471 35181 ft 465 kts 120°
2026-04-15 09:40 50.65026 3.96414 35179 ft 466 kts 120°
2026-04-15 09:41 50.61909 4.05360 35192 ft 466 kts 120°
2026-04-15 09:41 50.58781 4.14292 35205 ft 466 kts 120°
2026-04-15 09:42 50.55635 4.23194 35203 ft 466 kts 120°
2026-04-15 09:42 50.52489 4.32089 35214 ft 466 kts 120°
2026-04-15 09:43 50.49334 4.40972 35216 ft 466 kts 120°
2026-04-15 09:43 50.46168 4.49843 35219 ft 466 kts 120°
2026-04-15 09:44 50.43002 4.58710 35221 ft 466 kts 120°
2026-04-15 09:44 50.39826 4.67569 35219 ft 466 kts 120°
2026-04-15 09:45 50.36635 4.76415 35202 ft 466 kts 120°
2026-04-15 09:45 50.33442 4.85256 35208 ft 466 kts 120°
2026-04-15 09:46 50.30238 4.94085 35198 ft 466 kts 120°
2026-04-15 09:46 50.27036 5.02896 35206 ft 466 kts 120°
2026-04-15 09:47 50.23820 5.11708 35211 ft 467 kts 120°
2026-04-15 09:47 50.20595 5.20498 35215 ft 467 kts 120°
2026-04-15 09:48 50.17362 5.29289 35213 ft 467 kts 120°
2026-04-15 09:48 50.14125 5.38078 35215 ft 467 kts 120°
2026-04-15 09:49 50.10942 5.46899 35217 ft 467 kts 118°
2026-04-15 09:49 50.07824 5.55766 35229 ft 467 kts 118°
2026-04-15 09:50 50.04685 5.64615 35217 ft 467 kts 118°
2026-04-15 09:50 50.01518 5.73444 35228 ft 467 kts 118°
2026-04-15 09:51 49.98336 5.82259 35231 ft 467 kts 118°
2026-04-15 09:51 49.95155 5.91041 35237 ft 467 kts 118°
2026-04-15 09:52 49.91988 5.99769 35243 ft 467 kts 118°
2026-04-15 09:52 49.88800 6.08541 35247 ft 467 kts 118°
2026-04-15 09:53 49.85585 6.17351 35244 ft 467 kts 118°
2026-04-15 09:53 49.82408 6.26045 35243 ft 467 kts 118°
2026-04-15 09:54 49.79175 6.34841 35243 ft 467 kts 118°
2026-04-15 09:54 49.75981 6.43499 35243 ft 467 kts 117°
2026-04-15 09:55 49.72751 6.52210 35237 ft 467 kts 118°
2026-04-15 09:55 49.69406 6.60810 35226 ft 467 kts 120°
2026-04-15 09:56 49.65947 6.69307 35223 ft 467 kts 120°
2026-04-15 09:57 49.60755 6.82040 35233 ft 467 kts 119°
2026-04-15 09:57 49.57319 6.90550 35228 ft 467 kts 119°
2026-04-15 09:58 49.53886 6.99044 35229 ft 468 kts 120°
2026-04-15 09:58 49.50432 7.07527 35227 ft 467 kts 120°
2026-04-15 09:59 49.46973 7.15996 35230 ft 467 kts 120°
2026-04-15 09:59 49.43517 7.24446 35247 ft 467 kts 119°
2026-04-15 10:00 49.40050 7.32885 35243 ft 467 kts 119°
2026-04-15 10:00 49.36579 7.41305 35253 ft 467 kts 119°
2026-04-15 10:01 49.33103 7.49720 35256 ft 467 kts 119°
2026-04-15 10:01 49.29619 7.58121 35270 ft 467 kts 119°
2026-04-15 10:02 49.26128 7.66507 35254 ft 467 kts 118°
2026-04-15 10:02 49.22632 7.74883 35255 ft 467 kts 118°
2026-04-15 10:03 49.19132 7.83240 35255 ft 467 kts 118°
2026-04-15 10:03 49.15626 7.91591 35252 ft 467 kts 118°
2026-04-15 10:04 49.12119 7.99916 35266 ft 466 kts 118°
2026-04-15 10:04 49.08596 8.08227 35262 ft 466 kts 118°
2026-04-15 10:05 49.05071 8.16541 35253 ft 466 kts 118°
2026-04-15 10:05 49.01548 8.24824 35252 ft 466 kts 118°
2026-04-15 10:06 48.97607 8.32697 35242 ft 472 kts 132°
2026-04-15 10:06 48.92876 8.39624 35237 ft 471 kts 130°
2026-04-15 10:07 48.88384 8.46873 35229 ft 471 kts 129°
2026-04-15 10:07 48.83900 8.54124 35229 ft 471 kts 129°
2026-04-15 10:08 48.79401 8.61348 35226 ft 471 kts 130°
2026-04-15 10:08 48.74891 8.68551 35216 ft 471 kts 129°
2026-04-15 10:09 48.70375 8.75740 35246 ft 471 kts 129°
2026-04-15 10:09 48.65860 8.82909 35246 ft 471 kts 129°
2026-04-15 10:10 48.61334 8.90073 35242 ft 471 kts 129°
2026-04-15 10:10 48.56809 8.97222 35242 ft 471 kts 129°
2026-04-15 10:11 48.53043 9.03157 35241 ft 471 kts 129°
2026-04-15 10:11 48.48517 9.10284 35254 ft 471 kts 129°
2026-04-15 10:12 48.43979 9.17403 35236 ft 471 kts 129°
2026-04-15 10:12 48.39433 9.24508 35229 ft 471 kts 129°
2026-04-15 10:13 48.34885 9.31595 35222 ft 471 kts 129°
2026-04-15 10:13 48.30329 9.38675 35228 ft 471 kts 129°
2026-04-15 10:14 48.25754 9.45736 35220 ft 473 kts 132°
2026-04-15 10:14 48.20698 9.52118 35243 ft 476 kts 136°
2026-04-15 10:15 48.15580 9.58398 35236 ft 476 kts 136°
2026-04-15 10:15 48.10456 9.64669 35238 ft 476 kts 136°
2026-04-15 10:16 48.05334 9.70935 35239 ft 476 kts 136°
2026-04-15 10:16 48.00206 9.77195 35228 ft 475 kts 136°
2026-04-15 10:17 47.95080 9.83432 35245 ft 475 kts 135°
2026-04-15 10:17 47.89957 9.89649 35244 ft 475 kts 135°
2026-04-15 10:18 47.84828 9.95867 35244 ft 475 kts 135°
2026-04-15 10:18 47.79693 10.02076 35223 ft 475 kts 135°
2026-04-15 10:19 47.74554 10.08263 35225 ft 475 kts 135°
2026-04-15 10:19 47.69417 10.14440 35238 ft 475 kts 135°
2026-04-15 10:20 47.64282 10.20585 35218 ft 474 kts 135°
2026-04-15 10:20 47.59148 10.26709 35200 ft 474 kts 135°
2026-04-15 10:21 47.53865 10.32575 35193 ft 477 kts 141°
2026-04-15 10:21 47.48318 10.37971 35184 ft 477 kts 141°
2026-04-15 10:22 47.42765 10.43349 35170 ft 477 kts 141°
2026-04-15 10:22 47.37208 10.48723 35193 ft 477 kts 141°
2026-04-15 10:23 47.31651 10.54086 35173 ft 475 kts 141°
2026-04-15 10:23 47.26151 10.59447 35169 ft 473 kts 139°
2026-04-15 10:24 47.20800 10.65057 35185 ft 472 kts 138°
2026-04-15 10:24 47.15508 10.70752 35176 ft 471 kts 138°
2026-04-15 10:25 47.10190 10.76383 35217 ft 471 kts 139°
2026-04-15 10:25 47.04842 10.81939 35215 ft 470 kts 139°
2026-04-15 10:26 46.99502 10.87460 35202 ft 469 kts 139°
2026-04-15 10:26 46.94190 10.92968 35205 ft 468 kts 139°
2026-04-15 10:27 46.88905 10.98443 35202 ft 468 kts 139°
2026-04-15 10:27 46.83592 11.03930 35194 ft 467 kts 139°
2026-04-15 10:28 46.78759 11.10178 35215 ft 458 kts 128°
2026-04-15 10:28 46.74377 11.16822 35203 ft 457 kts 128°
2026-04-15 10:29 46.69964 11.23461 35197 ft 456 kts 129°
2026-04-15 10:29 46.65548 11.30081 35180 ft 456 kts 129°
2026-04-15 10:30 46.61136 11.36715 35171 ft 456 kts 128°
2026-04-15 10:30 46.56735 11.43330 35190 ft 454 kts 130°
2026-04-15 10:31 46.52334 11.49890 35186 ft 453 kts 130°
2026-04-15 10:31 46.47924 11.56440 35185 ft 453 kts 130°
2026-04-15 10:32 46.43528 11.62977 35186 ft 453 kts 130°
2026-04-15 10:32 46.39130 11.69504 35190 ft 452 kts 130°
2026-04-15 10:33 46.34734 11.76005 35190 ft 452 kts 130°
2026-04-15 10:33 46.30337 11.82500 35192 ft 451 kts 130°
2026-04-15 10:34 46.25932 11.88974 35188 ft 451 kts 130°
2026-04-15 10:34 46.21535 11.95430 35184 ft 451 kts 130°
2026-04-15 10:35 46.17129 12.01885 35190 ft 451 kts 131°
2026-04-15 10:35 46.12774 12.08245 35167 ft 436 kts 135°
2026-04-15 10:36 46.08535 12.14408 35179 ft 431 kts 135°
2026-04-15 10:36 46.04321 12.20528 35170 ft 430 kts 135°
2026-04-15 10:37 46.00105 12.26644 35178 ft 430 kts 135°
2026-04-15 10:37 45.95887 12.32743 35175 ft 430 kts 135°
2026-04-15 10:38 45.91674 12.38839 35184 ft 429 kts 135°
2026-04-15 10:38 45.87464 12.44906 35184 ft 428 kts 135°
2026-04-15 10:39 45.83254 12.50960 35187 ft 428 kts 135°
2026-04-15 10:39 45.79052 12.56980 35185 ft 427 kts 136°
2026-04-15 10:40 45.74852 12.62983 35186 ft 427 kts 136°
2026-04-15 10:40 45.70651 12.68975 35168 ft 426 kts 136°
2026-04-15 10:41 45.66468 12.74948 35180 ft 425 kts 136°
2026-04-15 10:41 45.62286 12.80892 35176 ft 423 kts 136°
2026-04-15 10:42 45.58111 12.86806 35174 ft 422 kts 136°
2026-04-15 10:42 45.53943 12.92704 35170 ft 422 kts 136°
2026-04-15 10:43 45.49780 12.98583 35160 ft 421 kts 137°
2026-04-15 10:43 45.45616 13.04454 35160 ft 421 kts 137°
2026-04-15 10:44 45.41447 13.10308 35165 ft 420 kts 137°
2026-04-15 10:44 45.37287 13.16137 35156 ft 420 kts 137°
2026-04-15 10:45 45.33126 13.21964 35156 ft 420 kts 137°
2026-04-15 10:45 45.28918 13.27711 35137 ft 419 kts 139°
2026-04-15 10:46 45.24576 13.33239 35136 ft 419 kts 140°
2026-04-15 10:46 45.20198 13.38712 35133 ft 419 kts 140°
2026-04-15 10:47 45.15842 13.44216 35129 ft 419 kts 140°
2026-04-15 10:47 45.11498 13.49722 35124 ft 419 kts 140°
2026-04-15 10:48 45.07150 13.55231 35118 ft 420 kts 140°
2026-04-15 10:48 45.02790 13.60737 35113 ft 420 kts 140°
2026-04-15 10:49 44.98425 13.66238 35121 ft 421 kts 140°
2026-04-15 10:49 44.94050 13.71745 35118 ft 421 kts 140°
2026-04-15 10:50 44.89673 13.77236 35128 ft 421 kts 140°
2026-04-15 10:50 44.85289 13.82713 35122 ft 421 kts 140°
2026-04-15 10:51 44.80903 13.88191 35119 ft 422 kts 140°
2026-04-15 10:51 44.76500 13.93684 35117 ft 423 kts 140°
2026-04-15 10:52 44.72828 13.98252 35123 ft 424 kts 140°
2026-04-15 10:52 44.68409 14.03743 35122 ft 424 kts 141°
2026-04-15 10:53 44.63982 14.09227 35115 ft 424 kts 141°
2026-04-15 10:53 44.59543 14.14708 35100 ft 426 kts 141°
2026-04-15 10:54 44.55092 14.20194 35107 ft 427 kts 141°
2026-04-15 10:54 44.50631 14.25691 35108 ft 427 kts 141°
2026-04-15 10:55 44.46163 14.31180 35114 ft 427 kts 142°
2026-04-15 10:55 44.41693 14.36654 35115 ft 427 kts 142°
2026-04-15 10:56 44.37225 14.42119 35115 ft 426 kts 141°
2026-04-15 10:56 44.32762 14.47569 35115 ft 426 kts 141°
2026-04-15 10:57 44.28294 14.53010 35114 ft 426 kts 141°
2026-04-15 10:57 44.21599 14.61147 35127 ft 425 kts 142°
2026-04-15 10:58 44.17147 14.66548 35120 ft 424 kts 142°
2026-04-15 10:58 44.12687 14.71935 35117 ft 424 kts 141°
2026-04-15 10:59 44.08224 14.77315 35109 ft 424 kts 141°
2026-04-15 10:59 44.03794 14.82659 35110 ft 424 kts 141°
2026-04-15 11:00 43.99305 14.88067 35110 ft 424 kts 142°
2026-04-15 11:00 43.94852 14.93414 35106 ft 423 kts 143°
2026-04-15 11:01 43.90421 14.98714 35105 ft 423 kts 142°
2026-04-15 11:01 43.85952 15.04033 35108 ft 424 kts 141°
2026-04-15 11:02 43.81443 15.09403 35108 ft 424 kts 143°
2026-04-15 11:02 43.76998 15.14688 35104 ft 424 kts 142°
2026-04-15 11:03 43.72529 15.19998 35101 ft 423 kts 142°
2026-04-15 11:03 43.68063 15.25296 35081 ft 423 kts 142°
2026-04-15 11:04 43.63597 15.30577 35073 ft 423 kts 141°
2026-04-15 11:04 43.59112 15.35860 35071 ft 424 kts 142°
2026-04-15 11:05 43.54626 15.41132 35068 ft 424 kts 142°
2026-04-15 11:05 43.50146 15.46403 35080 ft 423 kts 143°
2026-04-15 11:06 43.45670 15.51659 35075 ft 423 kts 143°
2026-04-15 11:06 43.41183 15.56901 35073 ft 423 kts 141°
2026-04-15 11:07 43.36692 15.62147 35072 ft 424 kts 141°
2026-04-15 11:07 43.32205 15.67386 35069 ft 424 kts 143°
2026-04-15 11:08 43.27707 15.72617 35071 ft 423 kts 142°
2026-04-15 11:08 43.23211 15.77833 35071 ft 423 kts 141°
2026-04-15 11:09 43.18712 15.83040 35073 ft 423 kts 141°
2026-04-15 11:09 43.14210 15.88248 35070 ft 424 kts 141°
2026-04-15 11:10 43.09702 15.93462 35071 ft 424 kts 142°
2026-04-15 11:10 43.05192 15.98658 35067 ft 424 kts 142°
2026-04-15 11:11 43.00668 16.03849 35063 ft 425 kts 142°
2026-04-15 11:11 42.96138 16.09047 35063 ft 426 kts 141°
2026-04-15 11:12 42.91604 16.14245 35066 ft 426 kts 141°
2026-04-15 11:12 42.87057 16.19434 35062 ft 426 kts 141°
2026-04-15 11:13 42.82513 16.24619 35070 ft 426 kts 142°
2026-04-15 11:13 42.77960 16.29803 35068 ft 426 kts 143°
2026-04-15 11:14 42.73405 16.34975 35076 ft 426 kts 142°
2026-04-15 11:14 42.68844 16.40134 35072 ft 426 kts 142°
2026-04-15 11:15 42.64287 16.45294 35075 ft 426 kts 142°
2026-04-15 11:15 42.59732 16.50441 35069 ft 426 kts 142°
2026-04-15 11:16 42.55168 16.55580 35078 ft 426 kts 143°
2026-04-15 11:16 42.50603 16.60711 35083 ft 426 kts 143°
2026-04-15 11:17 42.46038 16.65832 35092 ft 426 kts 142°
2026-04-15 11:17 42.41472 16.70945 35075 ft 426 kts 142°
2026-04-15 11:18 42.36906 16.76045 35073 ft 426 kts 143°
2026-04-15 11:18 42.32329 16.81151 35069 ft 426 kts 143°
2026-04-15 11:19 42.27752 16.86253 35073 ft 426 kts 143°
2026-04-15 11:19 42.23173 16.91348 35080 ft 426 kts 143°
2026-04-15 11:20 42.18591 16.96427 35082 ft 426 kts 143°
2026-04-15 11:20 42.14011 17.01502 35074 ft 426 kts 143°
2026-04-15 11:21 42.09420 17.06569 35066 ft 427 kts 143°
2026-04-15 11:21 42.04834 17.11636 35063 ft 427 kts 143°
2026-04-15 11:22 42.00232 17.16704 35070 ft 427 kts 143°
2026-04-15 11:22 41.95635 17.21752 35073 ft 427 kts 143°
2026-04-15 11:23 41.90711 17.26080 35075 ft 421 kts 159°
2026-04-15 11:23 41.85339 17.29217 35072 ft 421 kts 159°
2026-04-15 11:24 41.79970 17.32353 35079 ft 421 kts 159°
2026-04-15 11:24 41.74600 17.35479 35079 ft 421 kts 159°
2026-04-15 11:25 41.69228 17.38590 35082 ft 421 kts 159°
2026-04-15 11:25 41.63937 17.41663 35074 ft 411 kts 158°
2026-04-15 11:26 41.58711 17.44700 35094 ft 409 kts 158°
2026-04-15 11:26 41.53504 17.47716 35099 ft 407 kts 158°
2026-04-15 11:27 41.48305 17.50710 35095 ft 406 kts 159°
2026-04-15 11:27 41.43102 17.53708 34833 ft 413 kts 158°
2026-04-15 11:28 41.40457 17.55238 34389 ft 415 kts 159°
2026-04-15 11:28 41.37818 17.56759 33994 ft 411 kts 159°
2026-04-15 11:28 41.35199 17.58260 33568 ft 408 kts 159°
2026-04-15 11:28 41.32600 17.59749 33113 ft 405 kts 159°
2026-04-15 11:29 41.30016 17.61227 32675 ft 403 kts 158°
2026-04-15 11:29 41.27447 17.62695 32279 ft 400 kts 158°
2026-04-15 11:29 41.24904 17.64149 31891 ft 395 kts 158°
2026-04-15 11:29 41.22399 17.65579 31512 ft 388 kts 159°
2026-04-15 11:30 41.19936 17.66987 31136 ft 382 kts 159°
2026-04-15 11:30 41.17512 17.68373 30761 ft 376 kts 159°
2026-04-15 11:30 41.15125 17.69738 30392 ft 371 kts 158°
2026-04-15 11:30 41.12765 17.71087 30001 ft 368 kts 158°
2026-04-15 11:31 41.10424 17.72421 29576 ft 365 kts 158°
2026-04-15 11:31 41.08097 17.73744 29157 ft 363 kts 158°
2026-04-15 11:31 41.05789 17.75054 28727 ft 361 kts 159°
2026-04-15 11:31 41.03490 17.76362 28322 ft 358 kts 159°
2026-04-15 11:32 41.01204 17.77664 27918 ft 357 kts 159°
2026-04-15 11:32 40.98934 17.78952 27513 ft 353 kts 159°
2026-04-15 11:32 40.96679 17.80227 27124 ft 351 kts 159°
2026-04-15 11:32 40.94436 17.81492 26743 ft 350 kts 159°
2026-04-15 11:33 40.92206 17.82751 26366 ft 348 kts 159°
2026-04-15 11:33 40.89983 17.84006 25985 ft 347 kts 158°
2026-04-15 11:33 40.87770 17.85261 25615 ft 345 kts 158°
2026-04-15 11:33 40.86314 17.86087 25374 ft 344 kts 158°
2026-04-15 11:34 40.84117 17.87329 25013 ft 343 kts 158°
2026-04-15 11:34 40.81929 17.88564 24649 ft 341 kts 158°
2026-04-15 11:34 40.79749 17.89793 24297 ft 340 kts 158°
2026-04-15 11:34 40.77577 17.91014 23968 ft 339 kts 158°
2026-04-15 11:35 40.75413 17.92230 23627 ft 337 kts 158°
2026-04-15 11:35 40.73258 17.93443 23208 ft 336 kts 158°
2026-04-15 11:35 40.71115 17.94647 22806 ft 334 kts 158°
2026-04-15 11:35 40.68984 17.95839 22403 ft 332 kts 158°
2026-04-15 11:36 40.66870 17.97022 22008 ft 330 kts 158°
2026-04-15 11:36 40.64764 17.98200 21618 ft 328 kts 158°
2026-04-15 11:36 40.62705 17.99462 21233 ft 326 kts 150°
2026-04-15 11:36 40.60868 18.01204 20853 ft 326 kts 139°
2026-04-15 11:37 40.59349 18.03413 20477 ft 326 kts 128°
2026-04-15 11:37 40.58038 18.05837 20102 ft 325 kts 128°
2026-04-15 11:37 40.56726 18.08248 19737 ft 323 kts 128°
2026-04-15 11:37 40.55414 18.10640 19366 ft 322 kts 128°
2026-04-15 11:38 40.54105 18.13017 19017 ft 320 kts 128°
2026-04-15 11:38 40.52803 18.15378 18667 ft 318 kts 128°
2026-04-15 11:38 40.51510 18.17726 18312 ft 316 kts 128°
2026-04-15 11:38 40.50228 18.20057 17904 ft 314 kts 128°
2026-04-15 11:39 40.48952 18.22381 17494 ft 313 kts 128°
2026-04-15 11:39 40.47678 18.24696 17099 ft 311 kts 128°
2026-04-15 11:39 40.46411 18.26994 16710 ft 310 kts 129°
2026-04-15 11:39 40.45148 18.29282 16331 ft 309 kts 128°
2026-04-15 11:40 40.43886 18.31562 15953 ft 308 kts 128°
2026-04-15 11:40 40.42628 18.33827 15580 ft 307 kts 128°
2026-04-15 11:40 40.41373 18.36094 15206 ft 306 kts 128°
2026-04-15 11:40 40.40123 18.38354 14845 ft 305 kts 128°
2026-04-15 11:41 40.38878 18.40608 14486 ft 305 kts 128°
2026-04-15 11:41 40.37636 18.42855 14127 ft 304 kts 128°
2026-04-15 11:41 40.36393 18.45096 13758 ft 303 kts 128°
2026-04-15 11:41 40.35150 18.47332 13367 ft 303 kts 128°
2026-04-15 11:42 40.33912 18.49558 12966 ft 302 kts 128°
2026-04-15 11:42 40.32678 18.51776 12582 ft 301 kts 128°
2026-04-15 11:42 40.31448 18.53989 12202 ft 300 kts 128°
2026-04-15 11:42 40.30220 18.56199 11819 ft 299 kts 128°
2026-04-15 11:43 40.29000 18.58388 11447 ft 297 kts 128°
2026-04-15 11:43 40.27783 18.60568 11086 ft 296 kts 127°
2026-04-15 11:43 40.26569 18.62746 10692 ft 295 kts 127°
2026-04-15 11:43 40.25363 18.64906 10454 ft 290 kts 127°
2026-04-15 11:44 40.24184 18.67018 10240 ft 286 kts 127°
2026-04-15 11:44 40.23018 18.69104 10095 ft 282 kts 128°
2026-04-15 11:44 40.21875 18.71148 10054 ft 280 kts 128°
2026-04-15 11:44 40.20726 18.73203 10064 ft 280 kts 128°
2026-04-15 11:45 40.19580 18.75254 10061 ft 280 kts 128°
2026-04-15 11:45 40.18429 18.77305 10061 ft 279 kts 128°
2026-04-15 11:45 40.17278 18.79353 10062 ft 280 kts 128°
2026-04-15 11:45 40.16123 18.81404 10058 ft 280 kts 128°
2026-04-15 11:46 40.14971 18.83454 10058 ft 280 kts 128°
2026-04-15 11:46 40.13819 18.85507 10061 ft 280 kts 128°
2026-04-15 11:46 40.12667 18.87560 10061 ft 280 kts 128°
2026-04-15 11:46 40.11516 18.89608 10057 ft 280 kts 128°
2026-04-15 11:47 40.10364 18.91659 10057 ft 280 kts 128°
2026-04-15 11:47 40.09210 18.93705 10057 ft 280 kts 128°
2026-04-15 11:47 40.08054 18.95754 10056 ft 280 kts 128°
2026-04-15 11:47 40.06897 18.97800 10058 ft 280 kts 128°
2026-04-15 11:48 40.05698 18.99796 10053 ft 279 kts 134°
2026-04-15 11:48 40.04296 19.01533 10066 ft 278 kts 141°
2026-04-15 11:48 40.02826 19.03172 10060 ft 278 kts 141°
2026-04-15 11:48 40.01360 19.04817 10061 ft 278 kts 140°
2026-04-15 11:49 39.99898 19.06461 10057 ft 278 kts 140°
2026-04-15 11:49 39.98430 19.08110 10060 ft 278 kts 140°
2026-04-15 11:49 39.96962 19.09757 10051 ft 278 kts 140°
2026-04-15 11:49 39.95493 19.11403 10054 ft 278 kts 141°
2026-04-15 11:50 39.94034 19.13034 10055 ft 276 kts 141°
2026-04-15 11:50 39.92574 19.14667 10051 ft 277 kts 141°
2026-04-15 11:50 39.91113 19.16298 10055 ft 277 kts 141°
2026-04-15 11:50 39.89651 19.17928 10042 ft 277 kts 141°
2026-04-15 11:51 39.88190 19.19556 10041 ft 277 kts 141°
2026-04-15 11:51 39.86729 19.21186 10048 ft 276 kts 141°
2026-04-15 11:51 39.85268 19.22817 10046 ft 276 kts 141°
2026-04-15 11:51 39.83810 19.24443 10050 ft 276 kts 141°
2026-04-15 11:52 39.82349 19.26069 10045 ft 276 kts 141°
2026-04-15 11:52 39.80886 19.27694 10049 ft 276 kts 142°
2026-04-15 11:52 39.79423 19.29315 10048 ft 276 kts 142°
2026-04-15 11:52 39.77964 19.30934 10042 ft 276 kts 142°
2026-04-15 11:53 39.76502 19.32558 9848 ft 276 kts 141°
2026-04-15 11:53 39.75047 19.34174 9526 ft 274 kts 141°
2026-04-15 11:53 39.73604 19.35775 9214 ft 272 kts 141°
2026-04-15 11:53 39.72167 19.37367 8902 ft 271 kts 141°
2026-04-15 11:54 39.70736 19.38951 8594 ft 270 kts 141°
2026-04-15 11:54 39.69315 19.40529 8284 ft 269 kts 141°
2026-04-15 11:54 39.67901 19.42095 7987 ft 265 kts 141°
2026-04-15 11:54 39.66413 19.43452 7691 ft 260 kts 156°
2026-04-15 11:55 39.64732 19.44279 7385 ft 258 kts 160°
2026-04-15 11:55 39.63046 19.45070 7094 ft 257 kts 160°
2026-04-15 11:55 39.61367 19.45857 6772 ft 256 kts 160°
2026-04-15 11:55 39.59700 19.46643 6431 ft 253 kts 161°
2026-04-15 11:56 39.58084 19.47519 6092 ft 251 kts 150°
2026-04-15 11:56 39.56794 19.49037 6027 ft 256 kts 129°
2026-04-15 11:56 39.56023 19.51138 6031 ft 264 kts 107°
2026-04-15 11:56 39.55953 19.53537 6029 ft 272 kts 86°
2026-04-15 11:57 39.56279 19.55963 6024 ft 276 kts 79°
2026-04-15 11:57 39.58525 19.60009 5540 ft 289 kts 35°
2026-04-15 11:57 39.60353 19.61123 5288 ft 292 kts 24°
2026-04-15 11:58 39.62229 19.62117 5034 ft 291 kts 25°
2026-04-15 11:58 39.64097 19.63117 4816 ft 292 kts 25°
2026-04-15 11:58 39.66002 19.64145 4574 ft 301 kts 24°
2026-04-15 11:58 39.67925 19.65183 4470 ft 295 kts 24°
2026-04-15 11:59 39.69801 19.66198 4483 ft 292 kts 26°
2026-04-15 11:59 39.71590 19.67429 4417 ft 291 kts 31°
2026-04-15 11:59 39.73344 19.68683 4280 ft 284 kts 31°
2026-04-15 11:59 39.75071 19.69914 4165 ft 283 kts 31°
2026-04-15 12:00 39.76784 19.71136 4031 ft 276 kts 31°
2026-04-15 12:00 39.78414 19.72299 3889 ft 257 kts 31°
2026-04-15 12:00 39.79914 19.73367 3777 ft 235 kts 31°
2026-04-15 12:00 39.81312 19.74362 3692 ft 225 kts 31°
2026-04-15 12:01 39.82678 19.75343 3697 ft 224 kts 33°
2026-04-15 12:01 39.83839 19.76643 3707 ft 220 kts 56°
2026-04-15 12:01 39.84536 19.78364 3696 ft 210 kts 78°
2026-04-15 12:01 39.84725 19.80194 3700 ft 201 kts 94°
2026-04-15 12:02 39.84462 19.81914 3562 ft 192 kts 112°
2026-04-15 12:02 39.83854 19.83429 3359 ft 187 kts 119°
2026-04-15 12:02 39.83228 19.84878 3215 ft 182 kts 118°
2026-04-15 12:02 39.82614 19.86314 3189 ft 182 kts 118°
2026-04-15 12:03 39.82000 19.87754 3213 ft 183 kts 120°
2026-04-15 12:03 39.81381 19.89203 3196 ft 183 kts 120°
2026-04-15 12:03 39.80554 19.90442 3187 ft 183 kts 144°
2026-04-15 12:03 39.79384 19.91078 3194 ft 186 kts 168°
2026-04-15 12:04 39.78094 19.91250 3194 ft 186 kts 172°
2026-04-15 12:04 39.76857 19.91406 3201 ft 170 kts 172°
2026-04-15 12:04 39.75699 19.91555 3201 ft 165 kts 172°
2026-04-15 12:04 39.74565 19.91617 3156 ft 165 kts 180°
2026-04-15 12:05 39.73410 19.91523 2865 ft 167 kts 180°
2026-04-15 12:05 39.72246 19.91425 2591 ft 167 kts 179°
2026-04-15 12:05 39.71119 19.91329 2345 ft 158 kts 179°
2026-04-15 12:05 39.70044 19.91238 2091 ft 152 kts 179°
2026-04-15 12:06 39.68994 19.91150 1857 ft 151 kts 179°
2026-04-15 12:06 39.67954 19.91064 1626 ft 150 kts 179°
2026-04-15 12:06 39.66914 19.90978 1394 ft 149 kts 180°
2026-04-15 12:06 39.65880 19.90892 1153 ft 149 kts 181°
2026-04-15 12:07 39.64840 19.90807 939 ft 149 kts 181°
2026-04-15 12:07 39.63819 19.90714 697 ft 144 kts 182°
2026-04-15 12:07 39.62841 19.90684 397 ft 138 kts 177°
2026-04-15 12:07 39.61910 19.90788 213 ft 132 kts 170°
2026-04-15 12:08 39.61010 19.91000 57 ft 130 kts 168°
2026-04-15 12:08 39.60176 19.91220 22 ft 102 kts 169°
2026-04-15 12:08 39.59762 19.91325 22 ft 34 kts 168°
2026-04-15 12:08 39.59537 19.91383 20 ft 31 kts 168°
2026-04-15 12:09 39.59330 19.91438 17 ft 29 kts 168°
2026-04-15 12:09 39.59198 19.91496 18 ft 12 kts 135°
2026-04-15 12:09 39.59146 19.91485 18 ft 10 kts 252°
2026-04-15 12:09 39.59186 19.91448 17 ft 9 kts
2026-04-15 12:10 39.59296 19.91441 19 ft 23 kts 353°
2026-04-15 12:10 39.59499 19.91393 18 ft 34 kts 349°
2026-04-15 12:10 39.59734 19.91334 20 ft 35 kts 348°
2026-04-15 12:10 39.59973 19.91270 21 ft 36 kts 349°
2026-04-15 12:11 39.60222 19.91206 21 ft 37 kts 348°
2026-04-15 12:11 39.60451 19.91149 19 ft 29 kts 354°
2026-04-15 12:11 39.60579 19.91197 20 ft 13 kts 37°
2026-04-15 12:11 39.60654 19.91228 18 ft 11 kts 351°
2026-04-15 12:12 39.60669 19.91225 18 ft 0 kts 349°
2026-04-15 12:12 39.60685 19.91233 18 ft 4 kts 51°
2026-04-15 12:12 39.60693 19.91263 18 ft 3 kts 77°
2026-04-15 12:13 39.60699 19.91301 20 ft 6 kts 78°
2026-04-15 12:13 39.60704 19.91338 18 ft 0 kts 79°
2026-04-15 12:13 39.60705 19.91340 18 ft 0 kts 79°